SL-16 DEB, 22358

Orbit data source: Space-Track

SL-16 DEB, 22358 is space debris in LEO originally from a launch on Fri, 25 Dec 1992 UTC launched from the Tyuratam Missile And Space Complex (TTMTR). Debris objects in space refer to the collection of defunct objects orbiting the Earth. Examples of debris include non-operational satellites, rocket bodies, and fragments generated from explosions, collisions, or faulty payload assembly.

Loading next visibility...
Identifier
22358, 1992-093AX
Orbit
LEO
Country
Flag of CISCIS
Related business
Manufacturer
Unknown
Mission
Spacecraft
Bus & Motor
Unknown
Mass
Unknown
Launch date (UTC)
1992-12-25 (33 years ago)
Launch vehicle
Unknown
Launch site
Tyuratam Missile And Space Complex (TTMTR)
Object type
Payload
Rocket body
Debris
Shape & HBR
Unknown shape, 1.1 m
Radar Cross Section
Medium (>0.1 m² and <1 m²)

Expand to show TLE details & history
Last TLE update: 18 hours ago

TLE from 18 hours ago
0 SL-16 DEB
1 22358U 92093AX  25296.44944244  .00000108  00000-0  12255-3 0  9999
2 22358  71.2299 346.1576 0145989   5.0645  89.9617 13.84907119658068
Epoch: 2025-10-23T10:47Z
TLE epoch observation values (Epoch: 2025-10-23T10:47:11.826Z)
Latitude
70.20385°
Longitude
-97.67428°
Altitude
959.632 km
Speed
7.378 km/s
True Right ascension
06h 24m 56s
True Declination
70° 05' 49"
Sunlit
Object was in daylight at epoch
Visualization orbit readout
Latitude
Unknown
Longitude
Unknown
Altitude
Unknown
Speed
Unknown
Apparent Right ascension
Unknown
Apparent Declination
Unknown
Sunlit
N/A
Visualization observer readout
Local Sidereal Time
00:02:05
Azimuth
Unknown
Elevation
Unknown
Doppler factor
Unknown
Orbital elements
Apogee altitude
1,051.367 km
Perigee altitude
837.563 km
Semi-major axis
7,322.602 km
Eccentricity
0.0146
Inclination
71.2299°
RAAN
346.1576°
Arg. of periapsis
5.0645°
True anomaly
91.63439°
Mean anomaly
89.9617°
Eccentric anomaly
90.79807°
Mean motion
3.46374 °/min
Orbital period
103.93 mins
BSTAR
0.00012255
Loading maneuver chart data...
Computing Atmospheric mass density...
Loading historical data...
Loading historical data...
Loading historical data...
Loading historical data...
Loading historical data...
Loading historical data...
Loading historical data...

Documentation

Showing up to 5 results
|